Regional Weather Roundup
Issued by NWS

Home | Current Version | Previous Version | Graphics & Text | Print | Product List | Glossary On
Versions: 1 2 3 4 5 6 7 8 9 10 11 12 13 14 15 16 17 18 19 20 21 22 23 24 25 26 27 28 29 30 31 32 33 34 35 36 37 38 39 40 41 42 43 44 45 46 47 48 49 50
000
ASUS43 KDMX 221501
RWRIA

WEATHER ROUNDUP FOR IOWA
NATIONAL WEATHER SERVICE DES MOINES IA
900 AM CST MON JAN 22 2018

NOTE: "FAIR" INDICATES FEW OR NO CLOUDS BELOW 12,000 FEET WITH NO
SIGNIFICANT WEATHER AND/OR OBSTRUCTIONS TO VISIBILITY.

* - THESE STATIONS ARE NOT NWS STATIONS...THUS NOT UNDER NWS
QUALITY CONTROL.  THEY ALSO DO NOT REPORT WEATHER SUCH
AS PRECIPITATION OR FOG.

IAZ001>003-012>014-020>022-031>034-043>046-221600-
   NORTHWEST IOWA

CITY           SKY/WX    TMP DP  RH WIND       PRES   REMARKS
CARROLL *      LGT SNOW  36  34  93 NE28G36   29.40F WCI  23
DENISON *      SNOW      34  34 100 N20       29.44R VSB 1/4 WCI  22
LE MARS *      HVY RAIN  30  30 100 N32G43    29.54R VSB 1/4 WCI  15
ORANGE CITY *    N/A     30  30 100 N23G36    29.54R WCI  17
SHELDON *      HVY RAIN  30  30 100 N36G46    29.53S VSB<1/4 WCI  14
SIOUX CITY     HVY SNOW  29  29 100 N18       29.60R VSB 1/4 WCI  16
SPENCER        FOG       32  31  96 N39G49    29.51F VSB 1/4 WCI  16
STORM LAKE *   LGT RAIN  32  32 100 NE32G44   29.45R WCI  17
$$

IAZ055>058-069>071-079>083-090>094-221600-
   SOUTHWEST IOWA

CITY           SKY/WX    TMP DP  RH WIND       PRES   REMARKS
ATLANTIC *     CLOUDY    37  36  93 NE9       29.38S WCI  31
AUDUBON *      CLOUDY    36  34  93 N14G21    29.40R FOG     WCI  27
CLARINDA *     CLOUDY    36  36 100 W7        29.42  WCI  30
COUNCIL BLFS * LGT RAIN  34  34 100 NW10      29.40S WCI  26
CRESTON *      FOG       37  37 100 SW5       29.37S VSB 3/4 WCI  34
HARLAN  *      CLOUDY    36  36 100 NE8       29.43R WCI  29
LAMONI         PTSUNNY   42  40  92 SW18      29.38R
RED OAK *      CLOUDY    36  36 100 W8        29.40S WCI  29
SHENANDOAH *   CLOUDY    36  36 100 W6        29.41F WCI  31
$$

IAZ047>049-059>061-072>074-084-221600-
   CENTRAL IOWA

CITY           SKY/WX    TMP DP  RH WIND       PRES   REMARKS
AMES           CLOUDY    38  38 100 NE13      29.40S WCI  30
ANKENY *       CLOUDY    41  41 100 NE5       29.38R FOG
BOONE *        CLOUDY    36  36 100 E20       29.39S FOG     WCI  25
CHARITON *     PTSUNNY   46  45  93 S15       29.38S
DES MOINES     FOG       44  44 100 SE7       29.36S VSB 1/16
GRINNELL*      FOG       40  40  98 E7        29.41S VSB 1
KNOXVILLE *    CLOUDY    48  48 100 S16       29.36F
MARSHALLTOWN   HVY RAIN  38  38 100 E15       29.41R FOG     WCI  29
NEWTON *       PTSUNNY   43  43 100 E13       29.39S FOG
PELLA *        PTSUNNY   47  47  99 SE5       29.40F FOG
$$

IAZ004>006-015-016-023>025-035-036-221600-
   NORTH CENTRAL IOWA

CITY           SKY/WX    TMP DP  RH WIND       PRES   REMARKS
ALGONA *       LGT SNOW  34 N/A N/A NE23G32   29.51R WCI  22
CLARION *      CLOUDY    36  36 100 NE30G41   29.44R FOG     WCI  22
ESTHERVILLE    HVY SNOW  30  30 100 NE36G44   29.54S VSB 1/4 WCI  14
FORT DODGE *   LGT SNOW  35  34  96 NE20G29   29.43F FOG     WCI  24
MASON CITY     CLOUDY    34  32  92 NE24G33   29.51S WCI  21
FOREST CITY *  RAIN      34  34 100 NE18G31   29.50F WCI  23
WEBSTER CITY * LGT RAIN  36  36 100 E21G32    29.43R WCI  24
IOWA FALLS *   LGT SNOW  37  36  96 NE20G25   29.44F VSB 1   WCI  26
$$

IAZ007>011-017>019-026>030-037>042-050>054-066-221600-
   NORTHEAST IOWA

CITY           SKY/WX    TMP DP  RH WIND       PRES   REMARKS
CEDAR RAPIDS   LGT RAIN  42  42 100 E16       29.43F VSB 1/2
CHARLES CITY * LGT RAIN  36  36 100 NE22G30   29.49F WCI  24
CLINTON *      LGT RAIN  39  39 100 E10       29.51F FOG     WCI  32
DECORAH *      LGT RAIN  36  36 100 NE16G29   29.52F WCI  26
DUBUQUE        FOG       37  37 100 NE15      29.51F VSB 1   WCI  28
MONTICELLO *   MIX PCPN  39  39 100 NE20      29.47F WCI  30
OELWEIN *      LGT RAIN  36  36 100 NE22G30   29.47F WCI  24
WATERLOO       CLOUDY    36  34  92 E21G28    29.45F WCI  25
$$

IAZ064-065-067-068-078-221600-
   EAST CENTRAL IOWA

CITY           SKY/WX    TMP DP  RH WIND       PRES   REMARKS
DAVENPORT      FOG       42  40  92 NE12      29.50F VSB 1/4
IOWA CITY      CLOUDY    45  42  89 VRB5      29.46F FOG
MT. PLEASANT * PTSUNNY   52  50  93 S15       29.45F
MUSCATINE *    CLOUDY    46  46 100 SE5       29.47S FOG
QUAD CITIES    FOG       50  49  96 E10       29.47F VSB 1/4
$$

IAZ062-063-075>077-085>089-095>099-221600-
   SOUTHEAST IOWA

CITY           SKY/WX    TMP DP  RH WIND       PRES   REMARKS
BURLINGTON     CLOUDY    52  50  93 S15G24    29.47S
FAIRFIELD *    PTSUNNY   52  48  87 S15G22    29.42S
FORT MADISON * PTSUNNY   52  52 100 S9        29.47F
KEOKUK *       MOSUNNY   54  50  87 S13G20    29.46S
OTTUMWA        CLOUDY    51  47  86 S18       29.39F
WASHINGTON *   CLOUDY    50  50 100 S13       29.44F
$$

ABBREVIATIONS USED IN REMARKS
   TC - TEMPERATURES IN CELSIUS
  WCI - WIND CHILL INDEX
   HX - HEAT INDEX
  VSB - VISIBILITY
$$





USA.gov is the U.S. government's official web portal to all federal, state and local government web resources and services.